TimeCST,TemperatureF,Dew PointF,Humidity,Sea Level PressureIn,VisibilityMPH,Wind Direction,Wind SpeedMPH,Gust SpeedMPH,PrecipitationIn,Events,Conditions,WindDirDegrees,DateUTC
12:15 AM,45.7,43.9,93,29.72,5.0,SSE,4.6,-,N/A,,Clear,150,2013-12-03 06:15:00
12:35 AM,45.0,43.3,94,29.72,5.0,SE,3.5,-,N/A,,Clear,140,2013-12-03 06:35:00
12:55 AM,43.5,42.3,95,29.72,3.0,Calm,Calm,-,N/A,,Clear,0,2013-12-03 06:55:00
1:15 AM,41.5,41.5,100,29.73,0.2,Calm,Calm,-,N/A,Fog,Fog,0,2013-12-03 07:15:00
1:35 AM,41.2,41.2,100,29.72,0.5,Calm,Calm,-,N/A,Fog,Fog,0,2013-12-03 07:35:00
1:55 AM,40.1,40.1,100,29.73,2.0,Calm,Calm,-,N/A,,Clear,0,2013-12-03 07:55:00
2:15 AM,39.0,39.0,100,29.73,1.8,Calm,Calm,-,N/A,,Mist,0,2013-12-03 08:15:00
2:35 AM,41.4,41.4,100,29.73,2.0,SE,3.5,-,N/A,,Clear,130,2013-12-03 08:35:00
2:55 AM,44.4,44.4,100,29.73,3.0,SE,3.5,-,N/A,,Clear,140,2013-12-03 08:55:00
3:15 AM,44.4,44.4,100,29.72,3.0,SE,6.9,-,N/A,,Clear,140,2013-12-03 09:15:00
3:35 AM,44.8,44.8,100,29.72,3.0,SE,6.9,-,N/A,,Clear,140,2013-12-03 09:35:00
3:55 AM,45.5,45.5,100,29.71,3.0,SSE,6.9,-,N/A,,Clear,150,2013-12-03 09:55:00
4:15 AM,45.3,45.3,100,29.71,3.0,SE,6.9,-,N/A,,Clear,140,2013-12-03 10:15:00
4:35 AM,45.5,45.5,100,29.70,3.0,SSE,5.8,-,N/A,,Clear,150,2013-12-03 10:35:00
4:55 AM,46.8,46.8,100,29.70,2.5,SSE,6.9,-,N/A,,Mostly Cloudy,150,2013-12-03 10:55:00
5:15 AM,47.3,47.3,100,29.71,3.0,SE,5.8,-,N/A,,Overcast,140,2013-12-03 11:15:00
5:35 AM,47.7,47.7,100,29.70,1.0,SSE,5.8,-,N/A,,Overcast,150,2013-12-03 11:35:00
5:55 AM,48.0,48.0,100,29.70,0.5,SSE,5.8,-,N/A,Fog,Fog,150,2013-12-03 11:55:00
6:15 AM,49.1,49.1,100,29.71,0.5,South,5.8,-,N/A,Fog,Fog,170,2013-12-03 12:15:00
6:35 AM,49.3,49.3,100,29.71,0.5,South,6.9,-,N/A,,Drizzle,170,2013-12-03 12:35:00
6:55 AM,49.6,49.6,100,29.72,0.5,South,8.1,-,N/A,,Light Drizzle,170,2013-12-03 12:55:00
7:15 AM,50.0,50.0,100,29.72,0.8,South,6.9,-,N/A,,Overcast,170,2013-12-03 13:15:00
7:35 AM,50.0,50.0,100,29.74,0.2,South,5.8,-,N/A,Fog,Fog,190,2013-12-03 13:35:00
7:55 AM,50.2,50.2,100,29.75,0.2,South,6.9,-,N/A,Fog,Fog,190,2013-12-03 13:55:00
8:15 AM,50.5,50.5,100,29.76,0.2,South,8.1,-,N/A,Fog,Fog,190,2013-12-03 14:15:00
8:35 AM,50.5,50.5,100,29.75,0.2,South,8.1,-,N/A,Fog,Fog,190,2013-12-03 14:35:00
8:55 AM,50.9,50.9,100,29.75,0.5,South,4.6,-,N/A,Fog,Fog,170,2013-12-03 14:55:00
9:15 AM,51.3,51.3,100,29.74,0.8,South,6.9,-,N/A,,Overcast,170,2013-12-03 15:15:00
9:35 AM,51.8,51.8,100,29.76,2.5,South,6.9,-,N/A,,Overcast,180,2013-12-03 15:35:00
9:55 AM,52.3,52.3,100,29.76,3.0,South,9.2,-,N/A,,Overcast,190,2013-12-03 15:55:00
10:15 AM,52.9,52.9,100,29.76,4.0,South,5.8,-,N/A,,Overcast,180,2013-12-03 16:15:00
10:35 AM,53.6,53.6,100,29.75,4.0,South,8.1,-,N/A,,Overcast,190,2013-12-03 16:35:00
10:55 AM,54.1,53.4,97,29.75,5.0,South,8.1,-,N/A,,Overcast,190,2013-12-03 16:55:00
11:15 AM,54.9,52.9,93,29.74,5.0,South,6.9,-,N/A,,Overcast,190,2013-12-03 17:15:00
11:35 AM,55.8,52.2,88,29.73,7.0,South,9.2,-,N/A,,Overcast,170,2013-12-03 17:35:00
11:55 AM,56.5,51.8,84,29.71,7.0,South,12.7,-,N/A,,Overcast,190,2013-12-03 17:55:00
12:15 PM,56.7,51.4,83,29.71,7.0,South,10.4,17.3,N/A,,Scattered Clouds,170,2013-12-03 18:15:00
12:35 PM,56.8,51.4,82,29.70,7.0,South,9.2,-,N/A,,Clear,180,2013-12-03 18:35:00
12:55 PM,56.7,51.4,83,29.70,5.0,SSE,9.2,-,N/A,,Haze,160,2013-12-03 18:55:00
1:15 PM,57.7,52.2,82,29.70,7.0,South,9.2,-,N/A,,Scattered Clouds,170,2013-12-03 19:15:00
1:35 PM,57.7,52.0,81,29.70,7.0,SSE,8.1,-,N/A,,Mostly Cloudy,160,2013-12-03 19:35:00
1:55 PM,58.1,51.4,78,29.70,7.0,South,10.4,-,N/A,,Mostly Cloudy,170,2013-12-03 19:55:00
2:15 PM,58.1,51.3,78,29.70,7.0,South,10.4,-,N/A,,Mostly Cloudy,190,2013-12-03 20:15:00
2:35 PM,58.1,51.3,78,29.70,7.0,South,9.2,-,N/A,,Overcast,180,2013-12-03 20:35:00
2:55 PM,58.5,51.1,76,29.70,7.0,South,6.9,-,N/A,,Overcast,170,2013-12-03 20:55:00
3:15 PM,58.5,51.1,76,29.69,7.0,South,10.4,-,N/A,,Mostly Cloudy,170,2013-12-03 21:15:00
3:35 PM,58.5,50.9,76,29.70,10.0,SSE,8.1,-,N/A,,Mostly Cloudy,160,2013-12-03 21:35:00
3:55 PM,58.1,50.9,77,29.70,10.0,South,5.8,-,N/A,,Overcast,170,2013-12-03 21:55:00
4:15 PM,58.1,50.5,76,29.71,10.0,South,4.6,-,N/A,,Overcast,170,2013-12-03 22:15:00
4:35 PM,57.7,50.2,76,29.70,10.0,South,4.6,-,N/A,,Overcast,170,2013-12-03 22:35:00
4:55 PM,57.4,50.0,76,29.70,10.0,SSE,3.5,-,N/A,,Overcast,150,2013-12-03 22:55:00
5:15 PM,56.7,49.6,77,29.69,10.0,SE,3.5,-,N/A,,Mostly Cloudy,140,2013-12-03 23:15:00
5:35 PM,56.7,49.6,77,29.69,10.0,SSE,4.6,-,N/A,,Overcast,150,2013-12-03 23:35:00
5:55 PM,56.5,49.5,77,29.69,10.0,SSE,5.8,-,N/A,,Overcast,150,2013-12-03 23:55:00
6:15 PM,55.6,49.1,79,29.69,10.0,SE,6.9,-,N/A,,Scattered Clouds,140,2013-12-04 00:15:00
6:35 PM,55.2,49.1,80,29.70,10.0,SSE,5.8,-,N/A,,Clear,150,2013-12-04 00:35:00
6:55 PM,54.7,49.1,81,29.71,10.0,SE,3.5,-,N/A,,Clear,140,2013-12-04 00:55:00
7:15 PM,54.1,48.7,82,29.72,10.0,SSE,4.6,-,N/A,,Clear,160,2013-12-04 01:15:00
7:35 PM,53.6,48.4,82,29.72,10.0,SSE,4.6,-,N/A,,Clear,160,2013-12-04 01:35:00
7:55 PM,53.1,48.2,84,29.72,10.0,SE,3.5,-,N/A,,Clear,140,2013-12-04 01:55:00
8:15 PM,52.7,48.2,85,29.72,10.0,SSE,4.6,-,N/A,,Clear,150,2013-12-04 02:15:00
8:35 PM,52.7,47.8,84,29.73,10.0,SSE,3.5,-,N/A,,Clear,150,2013-12-04 02:35:00
8:55 PM,52.0,47.7,85,29.73,10.0,Calm,Calm,-,N/A,,Clear,0,2013-12-04 02:55:00
9:15 PM,49.8,47.1,90,29.73,7.0,Calm,Calm,-,N/A,,Clear,0,2013-12-04 03:15:00
9:35 PM,49.3,46.9,92,29.72,7.0,ESE,3.5,-,N/A,,Clear,120,2013-12-04 03:35:00
9:55 PM,50.0,47.3,90,29.72,7.0,ESE,3.5,-,N/A,,Clear,110,2013-12-04 03:55:00
10:15 PM,49.3,46.8,91,29.73,7.0,ESE,3.5,-,N/A,,Clear,120,2013-12-04 04:15:00
10:35 PM,50.0,47.5,91,29.73,7.0,ESE,4.6,-,N/A,,Clear,120,2013-12-04 04:35:00
10:55 PM,49.5,47.3,92,29.73,7.0,ESE,4.6,-,N/A,,Clear,120,2013-12-04 04:55:00
11:15 PM,48.9,46.8,92,29.72,7.0,ESE,3.5,-,N/A,,Clear,110,2013-12-04 05:15:00
11:35 PM,48.6,46.9,94,29.72,5.0,ESE,4.6,-,N/A,,Clear,110,2013-12-04 05:35:00
11:55 PM,48.6,46.9,94,29.72,5.0,ESE,4.6,-,N/A,,Scattered Clouds,120,2013-12-04 05:55:00